Milford, UT

3:53 PM MST on February 13, 2016 (GMT -0700)
Milford Municipal

Weather History for KMLF - January, 2014

Change the Weather History Date:

Thursday, January 30, 2014

  Actual Average Record
Temperature  
Mean Temperature 36 °F -  
Max Temperature 46 °F 41 °F 63 °F (2003)
Min Temperature 26 °F 18 °F -7 °F (2007)
Degree Days  
Heating Degree Days 28    
Moisture  
Dew Point 31 °F    
Average Humidity 94    
Maximum Humidity 100    
Minimum Humidity 31    
Precipitation  
Precipitation 0.16 in - - ()
Sea Level Pressure  
Sea Level Pressure 29.77 in    
Wind  
Wind Speed 13 mph (North)    
Max Wind Speed 23 mph    
Max Gust Speed 28 mph    
Visibility 5 miles    
Events Fog , Snow    
Averages and records for this station are not official NWS values.
T = Trace of Precipitation, MM = Missing Value Source: NWS Daily Summary

Daily Weather History Graph

Daily Weather History Graph

Search for Another Location

Airport or City:

Trip Planner

Search our weather history database for the weather conditions in past years. The results will help you decide how hot, cold, wet, or windy it might be!

Date:

Astronomy

Jan. 30, 2014 Rise Set
Actual Time 7:38 AM MST 5:52 PM MST
Civil Twilight 7:10 AM MST 6:20 PM MST
Nautical Twilight 6:39 AM MST 6:52 PM MST
Astronomical Twilight 6:07 AM MST 7:23 PM MST
Moon 7:08 AM MST (1/30) 6:07 PM MST (1/30)
Length of Visible Light 11h 09m
Length of Day
10h 13m
Waning Crescent, 0% of the Moon is Illuminated
Jan 30
Waning Crescent
Jan 30
New
Feb 6
First Quarter
Feb 14
Full
Feb 22
Last Quarter

Hourly Weather History & Observations

Time (MST) Temp. Windchill Dew Point Humidity Pressure Visibility Wind Dir Wind Speed Gust Speed Precip Events Conditions
12:52 AM 46.0 °F 38.8 °F 26.1 °F 46% 29.73 in 10.0 mi South 18.4 mph - N/A   Clear
1:52 AM 46.9 °F - 26.1 °F 44% 29.70 in 10.0 mi South 17.3 mph - N/A   Overcast
2:52 AM 46.0 °F 41.9 °F 26.1 °F 46% 29.70 in 10.0 mi NNW 8.1 mph - N/A   Partly Cloudy
3:52 AM 36.0 °F 24.4 °F 32.0 °F 86% 29.73 in 10.0 mi NNW 23.0 mph - N/A   Overcast
4:33 AM 35.1 °F 23.8 °F 32.0 °F 89% 29.81 in 10.0 mi NNW 20.7 mph 27.6 mph N/A   Overcast
4:41 AM 35.1 °F 24.5 °F 32.0 °F 89% 29.81 in 10.0 mi NNW 18.4 mph - N/A   Overcast
4:52 AM 35.1 °F 24.1 °F 32.0 °F 89% 29.75 in 10.0 mi NNW 19.6 mph - N/A   Overcast
5:37 AM 34.0 °F 22.7 °F 32.0 °F 92% 29.81 in 10.0 mi NNW 19.6 mph - N/A   Overcast
5:52 AM 34.0 °F 22.7 °F 32.0 °F 92% 29.75 in 10.0 mi NNW 19.6 mph - N/A   Overcast
6:52 AM 34.0 °F 23.4 °F 32.0 °F 92% 29.77 in 10.0 mi North 17.3 mph - N/A   Overcast
7:15 AM 34.0 °F 23.0 °F 30.9 °F 89% 29.82 in 10.0 mi North 18.4 mph - N/A   Overcast
7:28 AM 34.0 °F 23.4 °F 30.9 °F 89% 29.82 in 10.0 mi North 17.3 mph - N/A   Overcast
7:52 AM 33.1 °F 23.9 °F 32.0 °F 96% 29.78 in 10.0 mi North 12.7 mph - 0.00 in Snow Light Snow
8:52 AM 33.1 °F 23.9 °F 32.0 °F 96% 29.79 in 10.0 mi North 12.7 mph - 0.00 in   Overcast
9:02 AM 33.1 °F 23.0 °F 32.0 °F 96% 29.82 in 3.0 mi North 15.0 mph - 0.00 in Snow Light Snow
9:08 AM 33.1 °F 23.0 °F 32.0 °F 96% 29.82 in 2.0 mi North 15.0 mph - 0.00 in Snow Light Snow
9:12 AM 33.1 °F 24.4 °F 32.0 °F 96% 29.83 in 1.8 mi NNW 11.5 mph - 0.00 in Snow Light Snow
9:20 AM 33.1 °F 23.4 °F 32.0 °F 96% 29.83 in 1.5 mi North 13.8 mph - 0.00 in Snow Light Snow
9:25 AM 33.1 °F 23.4 °F 32.0 °F 96% 29.84 in 1.2 mi North 13.8 mph - 0.01 in Snow Light Snow
9:52 AM 33.1 °F 25.5 °F 32.0 °F 96% 29.81 in 1.0 mi North 9.2 mph - 0.02 in Snow Light Snow
10:15 AM 33.1 °F 27.7 °F 33.1 °F 100% 29.83 in 0.8 mi NNE 5.8 mph - 0.02 in Snow Light Snow
10:24 AM 33.1 °F 27.7 °F 32.0 °F 96% 29.83 in 0.8 mi North 5.8 mph - 0.03 in Snow Light Snow
10:34 AM 33.1 °F 26.1 °F 32.0 °F 96% 29.83 in 1.2 mi North 8.1 mph - 0.03 in Snow Light Snow
10:38 AM 33.1 °F 26.9 °F 32.0 °F 96% 29.82 in 1.8 mi North 6.9 mph - 0.03 in Snow Light Snow
10:40 AM 33.1 °F 26.1 °F 32.0 °F 96% 29.82 in 2.0 mi North 8.1 mph - 0.03 in Snow Light Snow
10:50 AM 33.8 °F 26.4 °F 32.0 °F 93% 29.82 in 4.0 mi NNE 9.2 mph - 0.03 in Snow Light Snow
10:52 AM 33.1 °F 25.5 °F 32.0 °F 96% 29.79 in 4.0 mi NNE 9.2 mph - 0.03 in Snow Light Snow
11:21 AM 34.0 °F 24.6 °F 32.0 °F 92% 29.82 in 7.0 mi North 13.8 mph - 0.01 in Snow Light Snow
11:52 AM 34.0 °F 25.5 °F 33.1 °F 96% 29.79 in 5.0 mi North 11.5 mph - 0.01 in Snow Light Snow
12:04 PM 34.0 °F 26.6 °F 33.1 °F 96% 29.80 in 6.0 mi North 9.2 mph - 0.00 in Snow Light Snow
12:31 PM 34.0 °F 27.2 °F 33.1 °F 96% 29.79 in 9.0 mi North 8.1 mph - 0.00 in Snow Light Snow
12:37 PM 34.0 °F 26.6 °F 33.1 °F 96% 29.78 in 9.0 mi North 9.2 mph - 0.00 in   Overcast
12:44 PM 34.0 °F 26.0 °F 33.1 °F 96% 29.78 in 10.0 mi North 10.4 mph - 0.00 in   Overcast
12:52 PM 34.0 °F 25.0 °F 33.1 °F 96% 29.75 in 10.0 mi North 12.7 mph - 0.00 in   Overcast
12:57 PM 34.0 °F 25.5 °F 32.0 °F 92% 29.77 in 10.0 mi North 11.5 mph - N/A   Overcast
1:15 PM 34.0 °F 25.5 °F 33.1 °F 96% 29.76 in 10.0 mi North 11.5 mph - N/A   Overcast
1:30 PM 34.0 °F 25.0 °F 33.1 °F 96% 29.75 in 10.0 mi North 12.7 mph - 0.00 in   Overcast
1:36 PM 34.0 °F 26.0 °F 33.1 °F 96% 29.75 in 10.0 mi North 10.4 mph - 0.00 in   Overcast
1:45 PM 34.0 °F 26.6 °F 33.1 °F 96% 29.75 in 10.0 mi NNE 9.2 mph - 0.00 in   Overcast
1:52 PM 34.0 °F 26.0 °F 33.1 °F 96% 29.71 in 10.0 mi North 10.4 mph - 0.00 in   Overcast
2:13 PM 34.0 °F 26.0 °F 33.1 °F 96% 29.73 in 10.0 mi North 10.4 mph - N/A   Overcast
2:24 PM 34.0 °F 26.0 °F 32.0 °F 92% 29.72 in 10.0 mi North 10.4 mph - N/A   Overcast
2:29 PM 34.0 °F 26.6 °F 33.1 °F 96% 29.72 in 10.0 mi North 9.2 mph - N/A   Overcast
2:52 PM 34.0 °F 26.6 °F 33.1 °F 96% 29.69 in 10.0 mi North 9.2 mph - N/A   Overcast
3:19 PM 34.0 °F 26.6 °F 32.0 °F 92% 29.72 in 10.0 mi North 9.2 mph - N/A   Overcast
3:38 PM 34.0 °F 25.5 °F 32.0 °F 92% 29.72 in 9.0 mi North 11.5 mph - 0.00 in Snow Light Snow
3:52 PM 33.1 °F 23.9 °F 32.0 °F 96% 29.73 in 5.0 mi North 12.7 mph - 0.00 in Snow Light Snow
3:57 PM 33.1 °F 24.4 °F 32.0 °F 96% 29.72 in 7.0 mi North 11.5 mph - 0.00 in Snow Light Snow
4:10 PM 33.1 °F 24.4 °F 32.0 °F 96% 29.72 in 1.5 mi North 11.5 mph - 0.00 in Snow Light Snow
4:16 PM 33.1 °F 23.4 °F 32.0 °F 96% 29.72 in 1.2 mi North 13.8 mph - 0.01 in Snow Light Snow
4:23 PM 32.0 °F 22.1 °F 32.0 °F 100% 29.72 in 1.0 mi North 13.8 mph - 0.01 in Snow Light Snow
4:29 PM 32.0 °F 22.5 °F 32.0 °F 100% 29.72 in 0.8 mi North 12.7 mph - 0.02 in Snow Light Snow
4:52 PM 32.0 °F 22.5 °F 32.0 °F 100% 29.73 in 0.8 mi North 12.7 mph - 0.04 in Snow Light Snow
5:05 PM 32.0 °F 22.5 °F 32.0 °F 100% 29.72 in 0.5 mi North 12.7 mph - 0.01 in Fog , Snow Snow
5:52 PM 32.0 °F 22.1 °F 30.9 °F 96% 29.76 in 0.8 mi North 13.8 mph - 0.07 in Snow Light Snow
6:00 PM 32.0 °F 21.6 °F 30.9 °F 96% 29.74 in 1.0 mi North 15.0 mph - 0.01 in Snow Light Snow
6:06 PM 32.0 °F 22.5 °F 30.9 °F 96% 29.75 in 1.2 mi NNW 12.7 mph - 0.02 in Snow Light Snow
6:19 PM 32.0 °F 23.0 °F 30.9 °F 96% 29.74 in 1.5 mi North 11.5 mph - 0.03 in Snow Light Snow
6:29 PM 32.0 °F 23.0 °F 30.9 °F 96% 29.74 in 1.8 mi North 11.5 mph - 0.03 in Snow Light Snow
6:37 PM 32.0 °F 23.0 °F 30.9 °F 96% 29.74 in 1.2 mi North 11.5 mph - 0.04 in Snow Light Snow
6:52 PM 32.0 °F 23.0 °F 30.9 °F 96% 29.77 in 1.8 mi North 11.5 mph - 0.05 in Snow Light Snow
7:13 PM 32.0 °F 22.5 °F 30.9 °F 96% 29.77 in 1.5 mi NNW 12.7 mph - 0.01 in Snow Light Snow
7:25 PM 32.0 °F 23.6 °F 30.9 °F 96% 29.76 in 1.8 mi North 10.4 mph - 0.02 in Snow Light Snow
7:32 PM 32.0 °F 24.2 °F 30.9 °F 96% 29.75 in 1.5 mi North 9.2 mph - 0.02 in Snow Light Snow
7:39 PM 32.0 °F 23.6 °F 30.9 °F 96% 29.76 in 1.2 mi North 10.4 mph - 0.03 in Snow Light Snow
7:49 PM 32.0 °F 23.6 °F 30.2 °F 93% 29.76 in 1.5 mi North 10.4 mph - 0.04 in Snow Light Snow
7:52 PM 32.0 °F 23.6 °F 30.9 °F 96% 29.78 in 1.8 mi North 10.4 mph - 0.04 in Snow Light Snow
7:58 PM 32.0 °F 23.6 °F 30.9 °F 96% 29.77 in 2.0 mi North 10.4 mph - 0.00 in Snow Light Snow
8:12 PM 32.0 °F 23.6 °F 30.9 °F 96% 29.77 in 3.0 mi North 10.4 mph - 0.00 in Snow Light Snow
8:18 PM 30.9 °F 22.2 °F 30.9 °F 100% 29.77 in 3.0 mi North 10.4 mph - 0.00 in Snow Light Snow
8:49 PM 30.2 °F 22.6 °F 30.2 °F 100% 29.79 in 4.0 mi North 8.1 mph - 0.01 in Snow Light Snow
8:52 PM 30.9 °F 23.5 °F 30.9 °F 100% 29.81 in 5.0 mi North 8.1 mph - 0.01 in Snow Light Snow
9:01 PM 30.9 °F 23.5 °F 30.9 °F 100% 29.79 in 7.0 mi North 8.1 mph - 0.00 in Snow Light Snow
9:52 PM 28.9 °F 21.1 °F 28.0 °F 96% 29.81 in 10.0 mi North 8.1 mph - 0.00 in   Overcast
10:05 PM 28.0 °F 20.0 °F 28.0 °F 100% 29.78 in 2.5 mi NNW 8.1 mph - N/A   Overcast
10:08 PM 28.0 °F 20.0 °F 28.0 °F 100% 29.78 in 1.5 mi NNW 8.1 mph - N/A   Overcast
10:13 PM 28.0 °F 20.8 °F 28.0 °F 100% 29.78 in 1.0 mi NNW 6.9 mph - N/A   Overcast
10:18 PM 28.0 °F 21.7 °F 28.0 °F 100% 29.77 in 0.8 mi NNW 5.8 mph - N/A   Overcast
10:25 PM 28.0 °F 21.7 °F 27.0 °F 96% 29.78 in 0.8 mi NNW 5.8 mph - N/A   Overcast
10:32 PM 27.0 °F 23.0 °F 26.1 °F 96% 29.78 in 1.0 mi North 3.5 mph - N/A   Overcast
10:39 PM 28.0 °F 24.2 °F 27.0 °F 96% 29.78 in 0.8 mi NNW 3.5 mph - N/A   Overcast
10:52 PM 28.0 °F - 27.0 °F 96% 29.81 in 0.5 mi Calm Calm - N/A Fog Light Freezing Fog
11:06 PM 28.0 °F 24.2 °F 27.0 °F 96% 29.78 in 0.5 mi NW 3.5 mph - N/A Fog Light Freezing Fog
11:11 PM 28.0 °F 22.8 °F 27.0 °F 96% 29.77 in 0.5 mi NNW 4.6 mph - N/A Fog Light Freezing Fog
11:40 PM 28.9 °F 21.1 °F 28.9 °F 100% 29.77 in 1.5 mi NNW 8.1 mph - N/A   Overcast
11:42 PM 28.9 °F 21.1 °F 28.9 °F 100% 29.77 in 2.0 mi NNW 8.1 mph - N/A   Overcast
11:46 PM 28.0 °F 22.8 °F 28.0 °F 100% 29.78 in 3.0 mi ENE 4.6 mph - N/A   Overcast
11:50 PM 28.4 °F 24.6 °F 28.4 °F 100% 29.77 in 2.5 mi Variable 3.5 mph - N/A   Overcast
11:52 PM 28.0 °F 22.8 °F 28.0 °F 100% 29.81 in 1.5 mi ESE 4.6 mph - N/A   Overcast
11:56 PM 26.1 °F 20.5 °F 26.1 °F 100% 29.78 in 0.8 mi ESE 4.6 mph - N/A   Overcast